Regional Weather Roundup
Issued by NWS

Home | Current Version | Previous Version | Text Only | Print | Product List | Glossary Off
Versions: 1 2 3 4 5 6 7 8 9 10 11 12 13 14 15 16 17 18 19 20 21 22 23 24 25 26 27 28 29 30 31 32 33 34 35 36 37 38 39 40 41 42 43 44 45 46 47 48 49 50

000
ASUS43 KOAX 231910
RWRNE

WEATHER ROUNDUP FOR NEBRASKA
NATIONAL WEATHER SERVICE OMAHA NE
200 PM CDT TUE SEP 23 2014

NOTES: SATELLITE DATA IS BEING USED TO AUGMENT CLOUD COVER ABOVE
       12000 FEET.
       "FAIR" INDICATES FEW OR NO CLOUDS BELOW 12,000 FEET WITH NO
       SIGNIFICANT WEATHER AND/OR OBSTRUCTIONS TO VISIBILITY.

  * THESE STATIONS DO NOT REPORT WEATHER SUCH AS RAIN...SNOW OR FOG.

NEZ001>004-019>022-054>056-232000-
NEBRASKA PANHANDLE

CITY           SKY/WX    TMP DP  RH WIND       PRES   REMARKS
SCOTTSBLUFF    SUNNY     82  48  30 W12G20    30.02S
ALLIANCE       SUNNY     81  48  31 NW14G21   29.99S
CHADRON        CLOUDY    73  53  49 NW9       29.97S
KIMBALL        MOSUNNY   78  41  26 NW16G25   30.07S
SIDNEY         SUNNY     82  46  28 W18G25    30.05F
$$

NEZ057>060-069>072-079>082-232000-
SOUTHWEST NEBRASKA

CITY           SKY/WX    TMP DP  RH WIND       PRES   REMARKS
NORTH PLATTE   SUNNY     79  60  52 S12       29.97F
IMPERIAL       SUNNY     81  49  32 NW9       30.00F
LEXINGTON      MOSUNNY   71  60  68 S12G20    30.00F
MCCOOK         MOSUNNY   77  61  57 S7        30.00F
OGALLALA       SUNNY     83  50  31 W8        29.98F
$$

NEZ005>010-023>029-035>040-094-232000-
NORTH CENTRAL NEBRASKA

CITY           SKY/WX    TMP DP  RH WIND       PRES   REMARKS
VALENTINE      PTSUNNY   74  58  57 SW10      29.90F
AINSWORTH      MOSUNNY   70  58  66 S18       29.93F
BROKEN BOW     PTSUNNY   72  60  66 S15G25    29.98F
O`NEILL        CLOUDY    63  58  86 S16       30.00F
ORD            CLOUDY    65  57  75 S17G23    29.99F
THEDFORD       MOSUNNY   80  58  47 S14       29.95F
$$

NEZ041-046>049-061>064-073>077-083>087-232000-
SOUTH CENTRAL NEBRASKA

CITY           SKY/WX    TMP DP  RH WIND       PRES   REMARKS
GRAND ISLAND   CLOUDY    68  56  65 S20G28    30.04F
AURORA         CLOUDY    67  54  63 S22       30.06F
HASTINGS       PTSUNNY   68  53  58 S16G26    30.05F
HEBRON         CLOUDY    64  54  72 S14       30.10F
HOLDREGE       MOSUNNY   69  56  61 S12       30.02F
KEARNEY *      PTSUNNY   70  57  64 S18G24    30.03F
YORK           CLOUDY    66  57  72 S20       30.07F
$$

NEZ011>018-030>034-042>045-232000-
NORTHEAST NEBRASKA

CITY           SKY/WX    TMP DP  RH WIND       PRES   REMARKS
NORFOLK        CLOUDY    63  57  81 SE17      30.06F
ALBION         CLOUDY    65  57  76 S15G22    30.04F
BLAIR          CLOUDY    64  58  81 SE8       30.13F
COLUMBUS *     CLOUDY    64  57  77 S16       30.08F
FREMONT        CLOUDY    62  58  87 SE7       30.13F
TEKAMAH        CLOUDY    61  58  90 SE6       30.13F
WAYNE          CLOUDY    62  57  84 S16G25    30.09F
$$

NEZ050>053-065>068-078-088>093-232000-
SOUTHEAST NEBRASKA

CITY           SKY/WX    TMP DP  RH WIND       PRES   REMARKS
LINCOLN        CLOUDY    70  56  61 S22G28    30.12F
OMAHA EPPLEY   PTSUNNY   68  57  68 SE15      30.14F
BEATRICE       RAIN      60  56  88 S10G24    30.14S
FALLS CITY     PTSUNNY   71  55  56 S14       30.16F
NEBRASKA CITY  MOSUNNY   69  50  50 S13       30.16S
PLATTSMOUTH    CLOUDY    69  52  54 S18G24    30.15F
$$

NEZ044-045-051>053-067-232000-
OMAHA AREA

CITY           SKY/WX    TMP DP  RH WIND       PRES   REMARKS
OMAHA EPPLEY   PTSUNNY   68  57  68 SE15      30.14F
BLAIR          CLOUDY    64  58  81 SE8       30.13F
FREMONT        CLOUDY    62  58  87 SE7       30.13F
MILLARD        CLOUDY    67  57  70 SE10      30.13F
OFFUTT AFB     PTSUNNY   70  58  66 SE20      30.14F
PLATTSMOUTH    CLOUDY    69  52  54 S18G24    30.15F
WAHOO          CLOUDY    67  58  72 SE14      30.11F
$$


USA.gov is the U.S. government's official web portal to all federal, state and local government web resources and services.